Flag for Russia Weather past 2 weeks in Kazan, Russia

Now
36 °F

Passing clouds.


Feels Like: 29 °F
Forecast: 35 / 45 °F
Wind: 8 mph from West

Location: Kazan'

Current Time: Apr 21, 2015 at 10:26:37 PM

Latest Report: Apr 21, 2015 at 10:00 PM


Visibility: N/A

Pressure: 29.65 "Hg

Humidity: 100%

Dew point: 36 °F

Location of KazanLocation

Historic Weather in Kazan — Graph

°F

Kazan temperature yesterday

Maximum temperature yesterday: 41 °F (at 12:00 AM)
Minimum temperature yesterday: 32 °F (at 12:30 PM)
Average temperature yesterday: 37 °F

Past Weeks' High & Low Weather Summary

 TemperatureHumidityPressure
High55 °F (Apr 14, 3:00 PM)100% (Apr 6, 9:00 PM)30.15 "Hg (Apr 6, 9:00 PM)
Low28 °F (Apr 8, 5:00 AM)30% (Apr 19, 2:00 PM)29.00 "Hg (Apr 20, 2:00 PM)
Average39 °F81%29.68 "Hg
* Reported Apr 6 9:00 PM — Apr 21 9:00 PM, Kazan, Weather by CustomWeather, © 2015

Note: Actual official high and low records may vary slightly from our data, if they occured in-between our weather recording intervals... More about our weather records

Advertising

Kazan weather history for previous 24 hours

 ConditionsComfort  
Time TempWeatherWind HumidityBarometerVisibility
9:00 PM
Tue, Apr 21
37 °FSprinkles. Passing clouds.6 mph93%29.62 "HgN/A
8:30 PM36 °FPassing clouds.6 mph100%29.62 "HgN/A
8:00 PM37 °FSprinkles. Passing clouds.6 mph93%29.62 "HgN/A
7:30 PM37 °FSprinkles. Partly sunny.3 mph93%29.62 "HgN/A
7:00 PM37 °FSprinkles. Partly sunny.8 mph93%29.59 "HgN/A
6:30 PM39 °FPartly sunny.10 mph87%29.59 "HgN/A
6:00 PM39 °FBroken clouds.10 mph81%29.56 "HgN/A
5:30 PM39 °FPartly sunny.8 mph81%29.56 "HgN/A
5:00 PM39 °FPartly sunny.10 mph81%29.56 "HgN/A
4:30 PM39 °FOvercast.13 mph87%29.56 "HgN/A
4:00 PM39 °FOvercast.13 mph87%29.56 "HgN/A
3:30 PM37 °FOvercast.13 mph93%29.56 "HgN/A
3:00 PM37 °FOvercast.10 mph93%29.53 "HgN/A
2:30 PM37 °FOvercast.10 mph93%29.53 "HgN/A
2:00 PM37 °FLow clouds.10 mph93%29.53 "HgN/A
1:30 PM37 °FLight rain. Low clouds.15 mph93%29.53 "HgN/A
1:00 PM37 °FLight rain. Low clouds.17 mph93%29.50 "HgN/A
12:30 PM36 °FLight rain. Low clouds.17 mph100%29.50 "HgN/A
12:00 PM36 °FLight rain. Low clouds.17 mph93%29.47 "HgN/A
11:30 AM36 °FLight rain. Low clouds.15 mph93%29.47 "HgN/A
11:00 AM36 °FLight rain. Low clouds.15 mph93%29.47 "HgN/A
10:30 AM36 °FLow clouds.13 mph93%29.45 "HgN/A
10:00 AM36 °FLow clouds.15 mph93%29.45 "HgN/A
9:30 AM34 °FLow clouds.15 mph100%29.42 "HgN/A
9:00 AM34 °FLight rain. Low clouds.13 mph93%29.42 "Hg3 mi
8:30 AM34 °FLight rain. Low clouds.13 mph93%29.42 "Hg2 mi
8:00 AM34 °FLight rain. Low clouds.13 mph93%29.39 "Hg2 mi
7:30 AM34 °FLight rain. Low clouds.13 mph93%29.39 "Hg3 mi
7:00 AM32 °FLight rain. Overcast.15 mph100%29.36 "Hg3 mi
6:30 AM34 °FLight rain. Low clouds.15 mph93%29.36 "HgN/A
6:00 AM32 °FLight rain. Low clouds.13 mph100%29.36 "HgN/A
5:30 AM32 °FLight rain. Overcast.15 mph100%29.33 "HgN/A
5:00 AM32 °FLight rain. Low clouds.17 mph100%29.33 "Hg3 mi
4:30 AM32 °FLight rain. Low clouds.15 mph100%29.33 "HgN/A
4:00 AM32 °FLight rain. Low clouds.20 mph100%29.33 "Hg3 mi
3:30 AM32 °FLight rain. Low clouds.22 mph100%29.30 "Hg3 mi
3:00 AM32 °FLight rain. Overcast.20 mph93%29.30 "HgN/A
2:30 AM32 °FLight rain. Overcast.20 mph93%29.30 "HgN/A
2:00 AM32 °FLight rain. Overcast.24 mph100%29.30 "HgN/A
1:30 AM32 °FLight rain. Overcast.22 mph100%29.27 "HgN/A
1:00 AM32 °FLight rain. Overcast.22 mph100%29.27 "HgN/A
12:30 AM32 °FLight rain. Low clouds.22 mph100%29.27 "Hg3 mi
11:30 PM
Mon, Apr 20
32 °FLight rain. Low clouds.22 mph100%29.27 "Hg2 mi
11:00 PM34 °FLight rain. Low clouds.22 mph93%29.24 "Hg3 mi
10:30 PM34 °FLow clouds.20 mph93%29.24 "HgN/A
10:00 PM34 °FLight rain. Low clouds.24 mph93%29.21 "HgN/A
Weather by CustomWeather, © 2015

See weather overviewHow to use our weather pages